User: anonymous   Login
Location: Stonelick Lake State Park
(39.2170°N, 84.0850°W)
Time: 08:59:57
(UTC-04:00)
Language:

Abrixas rocket - Orbit

View from above orbital plane
View from above orbital plane
View from above satellite
View from above satellite

Ground track
Ground track

The orbit data is extracted from the following two-line orbital elements,

1 25723U 99022C   16145.21849024  .00007377  00000-0  14451-3 0  9990
2 25723  48.4188  72.3504 0011825 323.5614 186.5129 15.48284170946119
Epoch (UTC): 24 May 2016 05:14:37
Eccentricity: 0.0011825
inclination: 48.4188°
perigee height: 414 km
apogee height: 430 km
right ascension of ascending node: 72.3504°
argument of perigee: 323.5614°
revolutions per day: 15.48284170
mean anomaly at epoch: 186.5129°
orbit number at epoch: 94611

The dashed part of the orbit path shows where the satellite is in the earth's shadow,  

DLR